McCall, ID

4:15 PM MST on February 22, 2017 (GMT -0700)
McCall

Weather History for KMYL - October, 2011

Change the Weather History Date:

Friday, October 14, 2011

  Actual Average Record
Temperature  
Mean Temperature 53 °F 40 °F  
Max Temperature 64 °F 56 °F 77 °F (1991)
Min Temperature 41 °F 25 °F 13 °F (1986)
Degree Days  
Heating Degree Days 12 25  
Month to date heating degree days 261 315  
Since 1 July heating degree days 608 1080  
Cooling Degree Days 0 0  
Month to date cooling degree days 0 0  
Year to date cooling degree days 56 25  
Growing Degree Days 2 (Base 50)    
Moisture  
Dew Point 39 °F    
Average Humidity 65    
Maximum Humidity 89    
Minimum Humidity 40    
Precipitation  
Precipitation 0.00 in 0.04 in 1.25 in (1962)
Month to date precipitation 1.44 0.48  
Year to date precipitation 20.61 14.40  
Sea Level Pressure  
Sea Level Pressure 29.99 in    
Wind  
Wind Speed 3 mph (SSE)    
Max Wind Speed 15 mph    
Max Gust Speed 18 mph    
Visibility 10 miles    
Events      
T = Trace of Precipitation, MM = Missing Value Source: NWS Daily Summary

Daily Weather History Graph

Daily Weather History Graph

Search for Another Location

Airport or City:

Trip Planner

Search our weather history database for the weather conditions in past years. The results will help you decide how hot, cold, wet, or windy it might be!

Date:

Astronomy

Oct. 14, 2011 Rise Set
Actual Time 7:58 AM MDT 7:01 PM MDT
Civil Twilight 7:28 AM MDT 7:31 PM MDT
Nautical Twilight 6:55 AM MDT 8:04 PM MDT
Astronomical Twilight 6:21 AM MDT 8:38 PM MDT
Moon 8:08 PM MDT (10/14) 10:40 AM MDT (10/14)
Length of Visible Light 12h 02m
Length of Day
11h 03m
Waning Gibbous, 94% of the Moon is Illuminated
Oct 14
Waning Gibbous
Oct 19
Last Quarter
Oct 26
New
Nov 2
First Quarter
Nov 10
Full

Hourly Weather History & Observations

Time (MDT) Temp. Windchill Dew Point Humidity Pressure Visibility Wind Dir Wind Speed Gust Speed Precip Events Conditions
12:51 AM 43.0 °F - 36.0 °F 76% 30.01 in 10.0 mi Calm Calm - N/A   Overcast
1:51 AM 44.1 °F - 36.0 °F 73% 30.01 in 10.0 mi Calm Calm - N/A   Overcast
2:51 AM 43.0 °F - 37.0 °F 80% 30.01 in 10.0 mi Calm Calm - N/A   Overcast
3:51 AM 43.0 °F - 36.0 °F 76% 30.00 in 10.0 mi Calm Calm - N/A   Overcast
4:51 AM 44.1 °F - 37.0 °F 76% 29.99 in 10.0 mi Calm Calm - N/A   Overcast
5:51 AM 43.0 °F - 37.9 °F 82% 30.00 in 10.0 mi Calm Calm - N/A   Overcast
6:51 AM 44.1 °F - 39.0 °F 82% 30.01 in 10.0 mi Calm Calm - N/A   Overcast
7:51 AM 43.0 °F - 39.0 °F 86% 30.03 in 10.0 mi Calm Calm - N/A   Overcast
8:51 AM 42.1 °F - 37.9 °F 85% 30.04 in 10.0 mi Calm Calm - N/A   Scattered Clouds
9:51 AM 46.0 °F - 39.0 °F 76% 30.04 in 10.0 mi Calm Calm - N/A   Clear
10:51 AM 48.9 °F - 36.0 °F 61% 30.05 in 10.0 mi Calm Calm - N/A   Clear
11:51 AM 54.0 °F - 37.9 °F 55% 30.03 in 10.0 mi Calm Calm - N/A   Clear
12:51 PM 59.0 °F - 36.0 °F 42% 30.01 in 10.0 mi South 10.4 mph - N/A   Clear
1:51 PM 61.0 °F - 37.9 °F 42% 29.98 in 10.0 mi South 13.8 mph 17.3 mph N/A   Clear
2:51 PM 63.0 °F - 39.0 °F 41% 29.95 in 10.0 mi SSE 10.4 mph - N/A   Partly Cloudy
4:51 PM 63.0 °F - 41.0 °F 45% 29.94 in 10.0 mi South 12.7 mph - N/A   Scattered Clouds
5:51 PM 61.0 °F - 42.1 °F 50% 29.95 in 10.0 mi South 12.7 mph - N/A   Clear
6:51 PM 57.0 °F - 43.0 °F 59% 29.94 in 10.0 mi South 6.9 mph - N/A   Clear
7:51 PM 54.0 °F - 41.0 °F 62% 29.96 in 10.0 mi Calm Calm - N/A   Clear
8:51 PM 51.1 °F - 42.1 °F 71% 29.96 in 10.0 mi Calm Calm - N/A   Mostly Cloudy
9:51 PM 50.0 °F - 43.0 °F 77% 29.96 in 10.0 mi Calm Calm - N/A   Overcast
10:51 PM 48.9 °F - 43.0 °F 80% 29.95 in 10.0 mi Calm Calm - N/A   Mostly Cloudy
11:51 PM 46.0 °F 44.8 °F 42.1 °F 86% 29.94 in 10.0 mi NE 3.5 mph - N/A   Partly Cloudy